Time,TemperatureF,DewpointF,PressureIn,WindDirection,WindDirectionDegrees,WindSpeedMPH,WindSpeedGustMPH,Humidity,HourlyPrecipIn,Conditions,Clouds,dailyrainin,SoftwareType,DateUTC
2013-12-16 00:02:00,34.0,34.0,30.44,North,11,0.0,0.0,99,0.00,,,0.00,,2013-12-16 06:02:00,
2013-12-16 00:22:00,34.0,34.0,30.43,North,11,0.0,0.0,100,0.00,,,0.00,,2013-12-16 06:22:00,
2013-12-16 00:32:00,34.0,34.0,30.43,North,11,0.0,0.0,100,0.00,,,0.00,,2013-12-16 06:32:00,
2013-12-16 00:52:00,33.0,33.0,30.43,North,11,0.0,0.0,100,0.00,,,0.00,,2013-12-16 06:52:00,
2013-12-16 01:11:00,33.0,33.0,30.45,North,11,0.0,0.0,100,0.00,,,0.00,,2013-12-16 07:11:00,
2013-12-16 01:22:00,33.0,33.0,30.45,North,11,0.0,0.0,100,0.00,,,0.00,,2013-12-16 07:22:00,
2013-12-16 01:33:00,33.0,33.0,30.45,North,11,0.0,0.0,100,0.00,,,0.00,,2013-12-16 07:33:00,
2013-12-16 01:52:00,33.0,33.0,30.46,North,11,0.0,0.0,100,0.00,,,0.00,,2013-12-16 07:52:00,
2013-12-16 02:22:00,32.0,32.0,30.46,North,11,0.0,0.0,100,0.00,,,0.00,,2013-12-16 08:22:00,
2013-12-16 02:52:00,31.0,31.0,30.46,North,11,0.0,0.0,100,0.00,,,0.00,,2013-12-16 08:52:00,
2013-12-16 03:03:00,31.0,31.0,30.46,North,11,0.0,0.0,100,0.00,,,0.00,,2013-12-16 09:03:00,
2013-12-16 03:22:00,31.0,31.0,30.47,North,11,0.0,0.0,100,0.00,,,0.00,,2013-12-16 09:22:00,
2013-12-16 03:53:00,31.0,31.0,30.47,North,11,0.0,0.0,100,0.00,,,0.00,,2013-12-16 09:53:00,
2013-12-16 04:23:00,31.0,31.0,30.47,North,11,0.0,0.0,100,0.00,,,0.00,,2013-12-16 10:23:00,
2013-12-16 04:52:00,31.0,31.0,30.46,North,11,0.0,0.0,100,0.00,,,0.00,,2013-12-16 10:52:00,
2013-12-16 05:22:00,30.0,30.0,30.46,North,11,0.0,0.0,100,0.00,,,0.00,,2013-12-16 11:22:00,
2013-12-16 05:53:00,30.0,30.0,30.47,North,11,0.0,0.0,100,0.00,,,0.00,,2013-12-16 11:53:00,
2013-12-16 06:02:00,30.0,30.0,30.47,North,11,0.0,0.0,100,0.00,,,0.00,,2013-12-16 12:02:00,
2013-12-16 06:21:00,30.0,30.0,30.47,North,11,0.0,0.0,100,0.00,,,0.00,,2013-12-16 12:21:00,
2013-12-16 06:32:00,30.0,30.0,30.47,North,11,0.0,0.0,100,0.00,,,0.00,,2013-12-16 12:32:00,
2013-12-16 06:52:00,30.0,30.0,30.48,North,11,0.0,0.0,100,0.00,,,0.00,,2013-12-16 12:52:00,
2013-12-16 07:21:00,30.0,30.0,30.48,North,11,0.0,0.0,100,0.00,,,0.00,,2013-12-16 13:21:00,
2013-12-16 07:52:00,31.0,31.0,30.50,North,11,0.0,0.0,100,0.00,,,0.00,,2013-12-16 13:52:00,
2013-12-16 08:02:00,31.0,31.0,30.50,North,11,0.0,0.0,100,0.00,,,0.00,,2013-12-16 14:02:00,
2013-12-16 08:22:00,34.0,34.0,30.49,North,11,0.0,0.0,100,0.00,,,0.00,,2013-12-16 14:22:00,
2013-12-16 08:42:00,36.0,36.0,30.48,North,11,0.0,0.0,100,0.00,,,0.00,,2013-12-16 14:42:00,
2013-12-16 08:52:00,36.0,36.0,30.48,North,11,0.0,0.0,100,0.00,,,0.00,,2013-12-16 14:52:00,
2013-12-16 09:02:00,36.0,36.0,30.48,North,11,0.0,0.0,100,0.00,,,0.00,,2013-12-16 15:02:00,
2013-12-16 10:23:00,49.0,43.0,30.43,ESE,121,0.0,0.0,81,0.00,,,0.00,,2013-12-16 16:23:00,
2013-12-16 10:43:00,52.0,45.0,30.42,South,173,1.0,3.0,77,0.00,,,0.00,,2013-12-16 16:43:00,
2013-12-16 10:52:00,52.0,45.0,30.42,South,173,1.0,3.0,77,0.00,,,0.00,,2013-12-16 16:52:00,
2013-12-16 11:11:00,55.0,47.0,30.39,SE,141,0.0,3.0,73,0.00,,,0.00,,2013-12-16 17:11:00,
2013-12-16 11:22:00,55.0,47.0,30.39,SE,141,0.0,3.0,73,0.00,,,0.00,,2013-12-16 17:22:00,
2013-12-16 11:52:00,56.0,44.0,30.37,WNW,285,0.0,5.0,63,0.00,,,0.00,,2013-12-16 17:52:00,
2013-12-16 12:12:00,57.0,42.0,30.35,West,260,0.0,2.0,58,0.00,,,0.00,,2013-12-16 18:12:00,
2013-12-16 12:22:00,57.0,42.0,30.35,West,260,0.0,2.0,58,0.00,,,0.00,,2013-12-16 18:22:00,
2013-12-16 12:52:00,58.0,40.0,30.32,NW,308,1.0,6.0,52,0.00,,,0.00,,2013-12-16 18:52:00,
2013-12-16 13:11:00,59.0,43.0,30.31,WNW,299,0.0,3.0,55,0.00,,,0.00,,2013-12-16 19:11:00,
2013-12-16 13:21:00,59.0,43.0,30.31,WNW,299,0.0,3.0,55,0.00,,,0.00,,2013-12-16 19:21:00,
2013-12-16 13:52:00,61.0,41.0,30.28,NW,315,1.0,5.0,48,0.00,,,0.00,,2013-12-16 19:52:00,
2013-12-16 14:21:00,63.0,41.0,30.27,WSW,241,0.0,5.0,44,0.00,,,0.00,,2013-12-16 20:21:00,
2013-12-16 14:52:00,63.0,42.0,30.26,NW,313,0.0,5.0,47,0.00,,,0.00,,2013-12-16 20:52:00,
2013-12-16 15:21:00,61.0,41.0,30.25,WSW,254,0.0,0.0,48,0.00,,,0.00,,2013-12-16 21:21:00,
2013-12-16 15:54:00,60.0,39.0,30.26,WSW,254,0.0,0.0,46,0.00,,,0.00,,2013-12-16 21:54:00,
2013-12-16 16:23:00,60.0,40.0,30.27,WNW,285,0.0,0.0,48,0.00,,,0.00,,2013-12-16 22:23:00,
2013-12-16 16:33:00,60.0,40.0,30.27,WNW,285,0.0,0.0,48,0.00,,,0.00,,2013-12-16 22:33:00,
2013-12-16 16:53:00,59.0,40.0,30.28,WNW,291,0.0,0.0,49,0.00,,,0.00,,2013-12-16 22:53:00,
2013-12-16 17:20:00,55.0,42.0,30.30,WNW,291,0.0,0.0,62,0.00,,,0.00,,2013-12-16 23:20:00,
2013-12-16 17:22:00,57.0,41.0,30.29,WNW,291,0.0,0.0,56,0.00,,,0.00,,2013-12-16 23:22:00,
2013-12-16 17:42:00,55.0,42.0,30.30,WNW,291,0.0,0.0,62,0.00,,,0.00,,2013-12-16 23:42:00,
2013-12-16 17:53:00,55.0,42.0,30.30,WNW,291,0.0,0.0,62,0.00,,,0.00,,2013-12-16 23:53:00,
2013-12-16 18:02:00,55.0,42.0,30.30,WNW,291,0.0,0.0,62,0.00,,,0.00,,2013-12-17 00:02:00,
2013-12-16 18:11:00,55.0,42.0,30.30,WNW,291,0.0,0.0,62,0.00,,,0.00,,2013-12-17 00:11:00,
2013-12-16 18:52:00,47.0,42.0,30.35,WNW,291,0.0,0.0,82,0.00,,,0.00,,2013-12-17 00:52:00,
2013-12-16 19:11:00,46.0,41.0,30.35,WNW,291,0.0,0.0,83,0.00,,,0.00,,2013-12-17 01:11:00,
2013-12-16 19:22:00,46.0,41.0,30.35,WNW,291,0.0,0.0,83,0.00,,,0.00,,2013-12-17 01:22:00,
2013-12-16 19:32:00,46.0,41.0,30.35,WNW,291,0.0,0.0,83,0.00,,,0.00,,2013-12-17 01:32:00,
2013-12-16 19:52:00,44.0,41.0,30.38,WNW,291,0.0,0.0,90,0.00,,,0.00,,2013-12-17 01:52:00,
2013-12-16 20:01:00,44.0,41.0,30.38,WNW,291,0.0,0.0,90,0.00,,,0.00,,2013-12-17 02:01:00,
2013-12-16 20:11:00,44.0,41.0,30.38,WNW,291,0.0,0.0,90,0.00,,,0.00,,2013-12-17 02:11:00,
2013-12-16 20:22:00,44.0,41.0,30.38,WNW,291,0.0,0.0,90,0.00,,,0.00,,2013-12-17 02:22:00,
2013-12-16 20:52:00,43.0,41.0,30.41,WNW,291,0.0,0.0,94,0.00,,,0.00,,2013-12-17 02:52:00,
2013-12-16 21:11:00,43.0,42.0,30.41,WNW,291,0.0,0.0,96,0.00,,,0.00,,2013-12-17 03:11:00,
2013-12-16 21:22:00,43.0,42.0,30.41,WNW,291,0.0,0.0,96,0.00,,,0.00,,2013-12-17 03:22:00,
2013-12-16 21:43:00,41.0,40.0,30.42,WNW,291,0.0,0.0,96,0.00,,,0.00,,2013-12-17 03:43:00,
2013-12-16 21:53:00,41.0,40.0,30.42,WNW,291,0.0,0.0,96,0.00,,,0.00,,2013-12-17 03:53:00,
2013-12-16 22:13:00,41.0,40.0,30.42,WNW,291,0.0,0.0,97,0.00,,,0.00,,2013-12-17 04:13:00,
2013-12-16 22:20:00,40.0,39.0,30.42,WNW,291,0.0,0.0,97,0.00,,,0.00,,2013-12-17 04:20:00,
2013-12-16 22:23:00,41.0,40.0,30.42,WNW,291,0.0,0.0,97,0.00,,,0.00,,2013-12-17 04:23:00,
2013-12-16 22:43:00,40.0,39.0,30.42,WNW,291,0.0,0.0,97,0.00,,,0.00,,2013-12-17 04:43:00,
2013-12-16 22:53:00,40.0,39.0,30.42,WNW,291,0.0,0.0,97,0.00,,,0.00,,2013-12-17 04:53:00,
2013-12-16 23:02:00,40.0,39.0,30.42,WNW,291,0.0,0.0,97,0.00,,,0.00,,2013-12-17 05:02:00,
2013-12-16 23:11:00,40.0,39.0,30.42,WNW,291,0.0,0.0,97,0.00,,,0.00,,2013-12-17 05:11:00,
2013-12-16 23:53:00,37.0,36.0,30.42,WNW,291,0.0,0.0,98,0.00,,,0.00,,2013-12-17 05:53:00,